When you browse on this site, cookies collect data to enhance your experience and personalize the content and advertising you see.
Visit our Privacy Policy to learn more. By continuing to use the site, you agree to this use of cookies and data.
  • In Lithuania
  • List of Countries
  • For 7 days
  • Water Temperature
  • Weather Map
  • Weather Widgets
  • user-avatar
    Login

    Hourly Weather Dębica

    Today, 18 February, Tuesday

    Time Temperature Precipitation Wind Pressure Humidity
    00:00 +5°C° 0.2 mm 3 mps 744 mmHg 83%
    01:00 +6°C° 0 mm 2 mps 744 mmHg 83%
    02:00 +5°C° 1.5 mm 3 mps 744 mmHg 87%
    03:00 +5°C° 1.5 mm 3 mps 744 mmHg 91%
    04:00 +5°C° 1.5 mm 4 mps 744 mmHg 95%
    05:00 +5°C° 0.6 mm 4 mps 744 mmHg 93%
    06:00 +6°C° 0.6 mm 4 mps 745 mmHg 91%
    07:00 +6°C° 0.6 mm 4 mps 745 mmHg 88%
    08:00 +6°C° 0 mm 5 mps 745 mmHg 82%
    09:00 +7°C° 0 mm 6 mps 745 mmHg 76%
    10:00 +8°C° 0 mm 7 mps 746 mmHg 70%
    11:00 +8°C° 0.1 mm 7 mps 746 mmHg 65%
    12:00 +8°C° 0.1 mm 7 mps 746 mmHg 61%
    13:00 +9°C° 0.1 mm 7 mps 746 mmHg 57%
    14:00 +8°C° 0.1 mm 6 mps 746 mmHg 58%
    15:00 +8°C° 0.1 mm 5 mps 746 mmHg 60%
    16:00 +7°C° 0.1 mm 4 mps 746 mmHg 62%
    17:00 +6°C° 0 mm 4 mps 746 mmHg 66%
    18:00 +5°C° 0 mm 3 mps 747 mmHg 71%
    19:00 +4°C° 0 mm 3 mps 747 mmHg 75%
    20:00 +4°C° 0.1 mm 3 mps 747 mmHg 77%
    21:00 +4°C° 0.1 mm 3 mps 747 mmHg 78%
    22:00 +3°C° 0.1 mm 4 mps 747 mmHg 79%
    23:00 +3°C° 0 mm 3 mps 747 mmHg 79%

    Tomorrow, 19 February, Wednesday

    Time Temperature Precipitation Wind Pressure Humidity
    00:00 +3°C° 0 mm 3 mps 747 mmHg 79%
    01:00 +2°C° 0 mm 3 mps 747 mmHg 79%
    02:00 +2°C° 0 mm 3 mps 747 mmHg 79%
    03:00 +2°C° 0 mm 3 mps 747 mmHg 79%
    04:00 +1°C° 0 mm 3 mps 746 mmHg 79%
    05:00 +1°C° 0 mm 3 mps 746 mmHg 80%
    06:00 +1°C° 0 mm 3 mps 746 mmHg 80%
    07:00 +1°C° 0 mm 2 mps 745 mmHg 81%
    08:00 +2°C° 0 mm 3 mps 745 mmHg 74%
    09:00 +3°C° 0 mm 4 mps 745 mmHg 68%
    10:00 +5°C° 0 mm 4 mps 744 mmHg 61%
    11:00 +5°C° 0 mm 4 mps 744 mmHg 58%
    12:00 +6°C° 0 mm 4 mps 744 mmHg 55%
    13:00 +7°C° 0 mm 4 mps 743 mmHg 52%
    14:00 +7°C° 0 mm 4 mps 743 mmHg 55%
    15:00 +7°C° 0 mm 3 mps 742 mmHg 59%
    16:00 +7°C° 0 mm 3 mps 742 mmHg 62%
    17:00 +5°C° 0 mm 3 mps 742 mmHg 66%
    18:00 +5°C° 0 mm 3 mps 742 mmHg 70%
    19:00 +4°C° 0 mm 3 mps 742 mmHg 74%
    20:00 +4°C° 0.2 mm 3 mps 742 mmHg 78%
    21:00 +3°C° 0.2 mm 3 mps 742 mmHg 83%
    22:00 +3°C° 0.2 mm 4 mps 742 mmHg 87%
    23:00 +3°C° 0.5 mm 4 mps 743 mmHg 87%

    Day after tomorrow, 20 February, Thursday

    Time Temperature Precipitation Wind Pressure Humidity
    00:00 +1°C° 0.5 mm 5 mps 743 mmHg 88%
    01:00 +1°C° 0.5 mm 6 mps 744 mmHg 89%
    02:00 +1°C° 0 mm 5 mps 744 mmHg 86%
    03:00 0°C° 0 mm 5 mps 744 mmHg 84%
    04:00 0°C° 0 mm 5 mps 745 mmHg 81%
    05:00 0°C° 0 mm 4 mps 745 mmHg 84%
    06:00 0°C° 0 mm 4 mps 745 mmHg 87%
    07:00 0°C° 0 mm 4 mps 746 mmHg 89%
    08:00 +1°C° 0.1 mm 4 mps 746 mmHg 85%
    09:00 +1°C° 0.1 mm 4 mps 746 mmHg 81%
    10:00 +3°C° 0.1 mm 4 mps 747 mmHg 77%
    11:00 +3°C° 0 mm 4 mps 747 mmHg 72%
    12:00 +3°C° 0 mm 4 mps 747 mmHg 68%
    13:00 +4°C° 0 mm 4 mps 747 mmHg 63%
    14:00 +4°C° 0 mm 3 mps 747 mmHg 63%
    15:00 +5°C° 0 mm 2 mps 747 mmHg 62%
    16:00 +5°C° 0 mm 2 mps 747 mmHg 62%
    17:00 +4°C° 0 mm 2 mps 747 mmHg 66%
    18:00 +4°C° 0 mm 1 mps 747 mmHg 69%
    19:00 +3°C° 0 mm 1 mps 747 mmHg 73%
    20:00 +3°C° 0 mm 1 mps 747 mmHg 75%
    21:00 +1°C° 0 mm 2 mps 747 mmHg 76%
    22:00 +1°C° 0 mm 2 mps 747 mmHg 78%
    23:00 +1°C° 0 mm 2 mps 747 mmHg 79%

    21 February, Friday

    Time Temperature Precipitation Wind Pressure Humidity
    00:00 0°C° 0 mm 3 mps 746 mmHg 80%
    01:00 0°C° 0 mm 3 mps 746 mmHg 81%
    02:00 0°C° 0 mm 3 mps 746 mmHg 79%
    03:00 0°C° 0 mm 3 mps 745 mmHg 78%
    04:00 0°C° 0 mm 3 mps 745 mmHg 77%
    05:00 -1°C° 0 mm 4 mps 744 mmHg 77%
    06:00 -1°C° 0 mm 4 mps 744 mmHg 76%
    07:00 -1°C° 0 mm 5 mps 744 mmHg 76%
    14:00 +1°C° 0.3 mm 8 mps 745 mmHg 81%
    15:00 +2°C° 0.3 mm 7 mps 745 mmHg 76%
    16:00 +2°C° 0.3 mm 7 mps 746 mmHg 71%
    17:00 +1°C° 0 mm 6 mps 747 mmHg 72%
    18:00 +1°C° 0 mm 6 mps 748 mmHg 73%
    19:00 0°C° 0 mm 5 mps 748 mmHg 74%
    20:00 0°C° 0.1 mm 5 mps 749 mmHg 81%
    21:00 0°C° 0.1 mm 5 mps 749 mmHg 88%
    22:00 -1°C° 0.1 mm 5 mps 750 mmHg 96%
    23:00 -1°C° 0.2 mm 5 mps 750 mmHg 94%

    22 February, Saturday

    Time Temperature Precipitation Wind Pressure Humidity
    00:00 0°C° 0.2 mm 5 mps 750 mmHg 93%
    01:00 0°C° 0.2 mm 4 mps 751 mmHg 91%
    02:00 0°C° 0 mm 4 mps 751 mmHg 89%
    03:00 0°C° 0 mm 4 mps 751 mmHg 87%
    04:00 0°C° 0 mm 4 mps 751 mmHg 84%
    05:00 -1°C° 0 mm 4 mps 751 mmHg 84%
    06:00 -1°C° 0 mm 4 mps 751 mmHg 85%
    07:00 -1°C° 0 mm 3 mps 751 mmHg 85%
    08:00 0°C° 0 mm 4 mps 751 mmHg 77%
    09:00 +1°C° 0 mm 4 mps 751 mmHg 69%
    10:00 +3°C° 0 mm 5 mps 751 mmHg 61%
    11:00 +3°C° 0 mm 5 mps 751 mmHg 60%
    12:00 +5°C° 0 mm 5 mps 750 mmHg 59%
    13:00 +5°C° 0 mm 5 mps 750 mmHg 58%
    14:00 +5°C° 0 mm 5 mps 750 mmHg 60%
    15:00 +5°C° 0 mm 4 mps 749 mmHg 63%
    16:00 +5°C° 0 mm 4 mps 748 mmHg 66%
    17:00 +4°C° 0 mm 4 mps 748 mmHg 68%
    18:00 +3°C° 0 mm 5 mps 748 mmHg 69%
    19:00 +2°C° 0 mm 5 mps 748 mmHg 71%
    20:00 +2°C° 0.1 mm 5 mps 747 mmHg 72%
    21:00 +3°C° 0.1 mm 5 mps 747 mmHg 72%
    22:00 +3°C° 0.1 mm 5 mps 747 mmHg 73%
    23:00 +3°C° 0.5 mm 5 mps 746 mmHg 76%

    23 February, Sunday

    Time Temperature Precipitation Wind Pressure Humidity
    00:00 +3°C° 0.5 mm 6 mps 746 mmHg 79%
    01:00 +2°C° 0.5 mm 6 mps 745 mmHg 82%
    02:00 +3°C° 0.7 mm 6 mps 745 mmHg 83%
    03:00 +3°C° 0.7 mm 6 mps 744 mmHg 84%
    04:00 +3°C° 0.7 mm 7 mps 744 mmHg 85%
    05:00 +4°C° 0.1 mm 7 mps 743 mmHg 83%
    06:00 +4°C° 0.1 mm 7 mps 743 mmHg 81%
    07:00 +5°C° 0.1 mm 7 mps 743 mmHg 80%
    08:00 +5°C° 0.2 mm 8 mps 742 mmHg 79%
    09:00 +6°C° 0.2 mm 8 mps 742 mmHg 79%
    10:00 +6°C° 0.2 mm 9 mps 742 mmHg 79%
    11:00 +6°C° 0.7 mm 9 mps 742 mmHg 79%
    12:00 +7°C° 0.7 mm 9 mps 742 mmHg 78%
    13:00 +7°C° 0.7 mm 9 mps 742 mmHg 78%
    14:00 +6°C° 0.4 mm 9 mps 742 mmHg 79%
    15:00 +6°C° 0.4 mm 8 mps 742 mmHg 79%
    16:00 +6°C° 0.4 mm 8 mps 742 mmHg 80%
    17:00 +5°C° 0.4 mm 7 mps 743 mmHg 81%
    18:00 +5°C° 0.4 mm 7 mps 743 mmHg 83%
    19:00 +5°C° 0.4 mm 6 mps 743 mmHg 84%
    20:00 +5°C° 0.2 mm 6 mps 743 mmHg 85%
    21:00 +5°C° 0.2 mm 6 mps 743 mmHg 85%
    22:00 +5°C° 0.2 mm 5 mps 744 mmHg 86%
    23:00 +5°C° 0.4 mm 5 mps 743 mmHg 88%
    Show more